Miscellaneous Local Product
Issued by NWS North Platte, NE

Home | Current Version | Previous Version | Text Only | Print | Product List | Glossary On
Versions: 1 2 3 4 5 6 7 8 9 10 11 12 13 14 15 16 17 18 19 20 21 22 23 24 25 26 27 28 29 30 31 32 33 34 35 36 37 38 39 40 41 42 43 44 45 46 47 48 49 50
000
AXUS43 KLBF 271510
MISLBF


WESTERN AND NORTH CENTRAL NEBRASKA HOURLY WEATHER ROUNDUP
NATIONAL WEATHER SERVICE NORTH PLATTE NE
1000 AM CDT SUN MAY 27 2018

NOTE: "FAIR" INDICATES FEW OR NO CLOUDS BELOW 12,000 FEET WITH NO
SIGNIFICANT WEATHER AND/OR OBSTRUCTIONS TO VISIBILITY.

NOTE: STATIONS NOT REPORTING VARIABLES SUCH AS SKY/WEATHER OR
PRESSURE ARE PROVIDED BY RAWS AND APRS NETWORKS AND ARE NOT UNDER
NATIONAL WEATHER SERVICE QUALITY CONTROL.

...OBSERVATIONS IN AND NEAR THE EASTERN PANHANDLE OF NEBRASKA...

CITY           SKY/WX    TMP DP  RH WIND       PRES   REMARKS
GORDON         FAIR      73  57  58 W5        29.84R
CRESCENT LAKE    N/A     75  60  58 S9G16       N/A
$$

...OBSERVATIONS IN NORTHERN NEBRASKA AND FAR SOUTHERN SOUTH DAKOTA...

CITY           SKY/WX    TMP DP  RH WIND       PRES   REMARKS
WINNER         FAIR      76  60  57 W9        29.80R
AINSWORTH      FAIR      78  64  61 SW20G29   29.83R
O`NEILL        FAIR      81  62  52 S9        29.84S
THEDFORD       FAIR      78  63  59 S16G24    29.85S
ALBION         SUNNY     82  64  55 SW10      29.86S
VALENTINE NWR    N/A     77  61  57 S18G25      N/A
HALSEY           N/A     80  63  55 S10G23      N/A
BUTTE            N/A     80  63  56 S12G22      N/A
CHAMBERS         N/A     84  63  49 W5G14       N/A
EWING            N/A     82  64  54 SW12G20     N/A
$$

...OBSERVATIONS IN SOUTHWEST NEBRASKA AND FAR NORTHEAST COLORADO...

CITY           SKY/WX    TMP DP  RH WIND       PRES   REMARKS
WRAY           FAIR      73  61  64 S21G28    29.85F
OGALLALA       FAIR      75  61  61 SW9G16    29.86R
LEXINGTON      FAIR      77  66  68 S15       29.88S
STAPLETON        N/A     80  64  58 SE3         N/A
GOTHENBURG       N/A     75  60  58 S9          N/A
CALLAWAY         N/A     77  65  67 S23         N/A
$$

...OBSERVATIONS IN CENTRAL LINCOLN COUNTY AREA...

CITY           SKY/WX    TMP DP  RH WIND       PRES   REMARKS
N.P. SOUTHEAST   N/A     78  64  62 S9G21       N/A
$$

...OBSERVATIONS ACROSS THE ROCKIES AND WESTERN HIGH PLAINS...

CITY           SKY/WX    TMP DP  RH WIND       PRES   REMARKS
BERTHOUD PASS  FAIR      41  30  65 MISG      30.38R
COPPER MTN     FAIR      50  19  29 E18       30.32F
MONARCH PASS   FAIR      46  16  29 MISG      30.43R
STEAMBOAT      FAIR      54  35  48 W5        30.01S
$$

...OBSERVATIONS ACROSS THE NORTHERN PLAINS...

CITY           SKY/WX    TMP DP  RH WIND       PRES   REMARKS
$$

...OBSERVATIONS ACROSS THE CENTRAL AND SOUTHERN PLAINS...

CITY           SKY/WX    TMP DP  RH WIND       PRES   REMARKS
$$




USA.gov is the U.S. government's official web portal to all federal, state and local government web resources and services.